GLOBALSTAR M048 [-]

Last updated on July 6, 2021, 3:36 p.m. UTC

1 25872U 99041A   21186.92542404 -.00000077  00000-0 -19924-3 0  9999
2 25872  51.9344 159.3222 0013207 209.9747 189.3024 11.33826840961398
UTC
Height (km)
Latitude
Longitude
Inclination
Orbital Period
UTC large
Height (km)
Speed (km/s)
/
Latitude / Longitude
Inclination (degrees)
Orbital Period (minutes)
Azimuth
Elevation
Range (km)
Doppler Factor
iOS Compass Heading
iOS Angle